Dewpoint
60 60 60 61 61 61 61 62 61 61 60 60 60 60 60 60 60 60 61 61 61 61 61 61 61 61 61 61 61 60 60 60 61 60 60 60 60 60 60 61 61 60 60 60 60 60 59 58 57 57 57 58 57 57 57 57 56 54 50 48 46 45 43 43 41 41 37 42 42 40 41 44 45 47 47 47 48 50 49 47 47 47 47 46 45
57 60 61 61 61 61 61 62 61 61 60 60 60 60 60 60 60 60 60 61 61 61 61 61 61 60 60 61 61 60 60 60 60 60 60 60 60 60 60 61 60 59 59 60 59 60 59 58 58 57 57 58 57 57 57 57 56 55 52 48 46 44 43 41 41 39 36 39 40 41 42 43 43 45 45 46 47 49 48 47 46 46 46 45 43
55 58 61 61 61 61 62 62 61 61 60 60 59 60 60 60 61 60 60 61 61 61 61 61 60 60 60 60 60 60 60 60 60 59 59 60 60 59 60 60 59 59 59 59 60 60 59 59 58 58 58 57 56 56 56 57 57 55 54 50 47 44 41 39 39 37 36 37 41 40 41 42 41 41 44 44 46 48 48 47 46 46 46 45 43
52 56 59 60 60 60 60 61 61 60 60 60 59 59 60 60 61 61 61 61 61 61 61 61 60 60 60 59 60 60 59 59 59 60 59 59 59 59 59 59 59 59 59 60 60 60 60 59 58 58 58 57 56 56 55 56 56 56 55 54 53 50 44 40 39 38 37 37 40 38 40 41 40 39 41 42 42 45 47 47 46 44 44 44 43
50 54 58 60 60 60 60 60 60 60 59 59 59 58 59 60 61 61 61 61 61 60 60 60 59 59 59 59 59 59 59 59 59 59 59 59 59 59 59 59 59 59 59 60 61 60 59 59 59 58 57 58 56 56 56 55 56 56 56 57 55 53 50 44 38 38 37 36 39 41 41 40 39 38 39 38 37 40 43 44 44 43 42 42 42
48 52 56 59 59 59 59 60 60 60 59 59 58 58 58 59 59 60 61 60 59 58 59 59 58 59 59 59 59 59 58 59 59 59 59 59 59 59 59 59 59 59 59 59 60 60 60 59 59 58 58 58 57 56 56 55 55 55 55 55 56 54 51 47 42 38 37 37 38 41 40 39 38 38 37 37 35 35 36 38 39 41 42 42 41
47 49 51 56 59 59 59 60 59 59 59 59 59 59 59 59 59 60 60 59 59 58 58 58 57 57 58 58 58 58 58 58 58 57 58 59 59 59 58 58 58 59 59 59 59 59 59 59 59 58 58 58 58 57 56 54 54 54 54 53 53 53 51 47 43 39 38 37 39 40 40 40 39 39 38 36 34 33 33 36 34 34 41 42 41
46 47 49 51 53 58 59 59 59 58 59 59 59 59 59 59 59 59 59 59 58 57 57 56 57 57 55 57 56 57 57 56 55 56 58 58 58 58 58 58 58 57 58 58 58 58 59 59 59 58 58 58 58 57 56 55 54 53 53 53 50 49 51 50 43 39 38 38 38 39 41 40 40 42 38 35 35 36 34 33 32 32 35 39 41
45 46 47 48 49 51 56 58 57 58 59 59 59 59 59 59 58 58 58 58 58 58 57 56 52 51 50 51 51 52 53 51 50 53 56 57 57 58 57 57 57 57 56 57 57 57 57 57 57 58 58 59 56 55 55 55 55 53 52 53 50 48 48 46 43 41 39 38 38 40 40 40 40 40 38 37 36 35 36 35 33 33 35 38 37
45 45 46 46 48 49 51 56 58 57 58 58 59 59 59 58 58 58 58 58 58 57 56 53 51 49 48 47 47 48 47 46 47 45 49 56 56 57 56 56 56 56 55 55 55 56 56 55 55 58 57 56 54 51 50 51 53 55 55 53 52 50 48 46 43 42 40 39 38 40 40 40 41 40 40 38 38 38 39 38 36 36 38 38 40
44 45 45 46 47 48 49 51 56 57 58 58 59 58 58 58 58 58 58 58 56 55 53 50 48 47 47 46 45 44 43 43 40 39 42 46 54 54 55 54 54 54 54 54 55 55 53 53 53 57 56 57 53 49 49 49 49 47 50 52 50 49 46 45 44 43 42 40 40 40 39 39 40 41 41 40 40 39 39 39 39 38 38 38 37
44 44 45 46 46 47 48 50 52 56 57 58 58 58 58 58 57 57 57 56 53 53 51 48 46 45 44 43 42 42 41 40 38 40 42 45 50 53 54 54 52 52 53 53 54 54 53 52 51 51 51 51 49 47 45 41 41 41 40 40 41 40 44 46 45 44 43 42 42 41 40 39 40 41 41 41 41 41 41 40 40 39 39 39 39
43 44 45 45 46 47 47 48 49 53 57 58 58 57 57 57 57 56 56 55 51 50 48 45 43 42 41 40 40 41 41 39 39 40 42 44 46 49 51 51 51 50 50 51 52 53 52 50 48 46 46 52 51 46 45 46 45 46 46 44 43 42 41 42 43 45 45 44 44 44 43 43 45 45 45 44 44 42 42 41 41 41 40 39 40
43 43 44 45 46 46 47 47 48 49 54 57 56 56 57 57 56 55 53 50 47 45 43 42 41 40 40 40 41 41 41 40 40 42 44 44 45 48 52 52 51 51 51 51 51 50 49 48 46 45 44 45 45 46 45 47 49 49 48 46 44 42 41 40 43 44 46 47 47 47 48 47 48 47 48 48 47 45 45 44 44 43 42 42 42
42 43 44 45 45 46 46 47 47 48 48 53 55 55 56 56 54 51 50 48 45 43 42 40 40 40 40 40 40 39 40 39 41 43 44 44 45 46 49 48 46 44 43 43 43 43 42 43 41 40 41 42 44 45 47 49 50 48 45 43 41 41 41 40 41 44 47 49 50 49 48 48 48 46 46 46 48 48 48 47 46 46 46 45 45
42 43 43 44 45 45 46 46 46 46 47 48 52 53 54 52 49 48 47 46 45 44 42 41 39 39 39 39 38 38 39 39 41 43 43 43 43 46 44 43 41 40 39 38 38 37 37 37 36 37 38 40 42 45 47 51 49 46 43 41 40 39 41 42 39 39 43 44 45 45 45 45 43 45 45 44 46 47 47 48 48 46 46 45 45
42 42 43 44 45 45 45 46 46 46 46 46 47 49 49 47 46 46 45 45 44 43 41 40 39 38 38 38 38 39 39 39 41 41 41 41 42 42 41 40 40 39 39 40 40 40 39 36 34 34 36 37 39 42 45 47 48 45 42 38 37 36 39 41 39 38 39 38 38 38 38 39 41 42 42 43 44 44 45 47 47 44 45 43 43
41 42 42 44 44 45 45 45 46 46 46 46 46 46 47 47 46 46 45 44 44 43 43 43 41 40 39 39 40 40 40 40 39 40 40 40 41 41 40 38 37 36 36 36 37 38 41 43 40 34 35 37 36 37 40 45 45 42 37 34 33 33 35 39 40 40 39 39 39 38 39 39 41 41 41 42 43 45 46 45 45 43 42 41 42
41 41 42 43 44 45 45 45 45 46 46 46 46 46 46 46 46 46 45 44 43 43 43 42 42 42 41 41 43 41 41 41 39 39 40 40 41 41 40 38 37 36 36 36 37 37 38 40 41 39 37 37 36 37 37 38 37 36 34 32 32 32 35 38 39 40 40 41 41 41 40 42 43 43 44 42 42 44 45 45 43 44 43 42 42
40 41 41 42 43 44 45 45 45 45 46 46 47 47 46 45 45 44 43 43 43 43 43 43 42 42 42 42 42 41 40 40 40 39 40 41 41 42 41 39 38 38 38 37 38 38 38 38 40 36 36 35 35 36 37 36 36 35 33 31 31 33 38 39 41 40 41 41 40 41 41 41 41 42 42 43 44 45 43 44 44 44 44 42 42
39 39 40 40 41 42 44 44 44 45 46 46 47 47 47 45 44 43 43 43 43 42 42 42 42 42 42 42 42 42 42 41 40 38 39 40 41 43 45 42 40 39 39 39 39 39 39 39 39 37 36 36 36 36 37 37 37 38 35 34 37 38 39 40 41 42 41 41 41 41 41 41 41 41 42 42 43 43 43 42 43 43 43 42 43
37 37 37 38 40 41 42 43 44 45 45 46 46 46 46 46 45 44 44 43 42 42 42 42 42 42 42 42 42 42 43 42 42 39 38 39 39 41 44 44 44 44 43 43 43 42 41 40 39 38 36 36 36 37 37 37 37 40 38 36 35 37 41 41 41 41 41 41 40 40 40 40 41 41 41 42 42 43 42 42 42 41 42 44 45
36 36 36 36 38 40 41 41 42 44 44 45 44 45 46 46 45 45 44 43 43 42 42 42 42 42 42 42 42 42 42 41 39 40 37 38 38 39 39 42 40 45 43 42 42 42 43 42 41 38 37 37 37 37 37 37 37 36 35 35 36 37 40 41 40 41 41 41 40 40 40 41 40 41 41 41 42 42 42 42 41 41 40 41 42
35 35 36 35 35 36 38 40 41 42 43 44 44 44 44 45 45 45 44 44 43 42 42 42 42 41 41 41 41 41 42 41 39 38 38 36 36 36 37 38 40 44 44 43 43 42 42 41 39 36 36 36 36 36 36 37 37 36 36 37 38 39 42 41 41 41 40 40 40 40 39 40 40 39 39 40 40 41 41 40 39 38 38 37 37
35 35 35 35 34 33 34 36 39 40 41 42 42 42 43 43 44 44 44 43 43 42 42 42 41 41 40 40 40 40 41 41 41 39 38 37 36 36 36 36 36 38 41 41 41 41 38 37 36 36 36 36 37 37 37 36 36 36 36 37 40 41 40 40 40 39 39 38 38 38 38 38 38 38 38 39 38 39 38 38 38 38 38 37 38
34 34 34 35 34 33 33 33 34 37 39 41 40 41 41 42 42 43 44 43 43 42 41 41 40 40 39 39 39 39 40 40 40 40 39 39 38 36 36 36 37 37 38 38 37 37 36 36 36 37 37 38 38 38 37 37 36 36 37 38 38 39 38 38 37 37 36 36 36 36 36 37 37 37 36 37 37 37 37 36 36 37 36 36 37
34 34 34 35 35 34 33 34 34 34 35 38 40 40 39 39 40 40 42 43 43 42 41 41 40 39 39 39 39 39 39 39 39 39 39 39 39 39 39 39 37 38 40 41 40 40 39 39 38 36 36 36 36 36 37 37 38 39 38 38 37 37 37 37 37 36 36 35 35 34 34 34 34 35 35 35 35 35 35 35 34 35 34 34 32
33 33 33 34 35 35 34 33 33 34 34 34 35 37 38 38 37 36 36 38 41 41 41 40 40 39 39 39 39 39 38 38 38 37 38 38 38 39 38 38 38 38 40 40 41 41 40 37 38 40 40 39 39 38 37 36 36 35 36 36 36 36 37 37 36 35 34 34 34 33 33 33 33 33 33 33 33 33 33 33 32 33 32 32 31
33 33 33 33 34 35 34 33 33 33 34 34 34 34 35 37 38 38 38 37 38 40 41 40 40 40 40 39 39 38 38 38 37 36 35 34 34 36 36 36 36 36 37 37 38 36 36 36 35 35 35 34 34 35 35 34 34 35 35 35 35 35 35 34 34 33 33 33 32 32 31 31 31 31 31 31 31 31 31 32 31 30 31 31 30
32 33 33 32 33 34 35 34 33 33 33 33 34 34 34 35 35 36 36 36 35 35 36 37 39 39 38 38 38 38 38 37 35 34 34 35 35 35 35 35 35 36 35 35 35 34 34 34 34 34 34 34 34 33 33 34 33 33 33 33 33 34 33 33 33 32 31 31 31 30 30 30 30 30 30 29 30 30 31 31 29 29 30 30 30
32 32 33 32 32 33 33 33 34 33 33 33 33 33 34 34 34 35 35 35 35 35 35 35 35 35 37 37 36 35 35 34 34 35 35 35 35 34 34 35 35 34 34 34 33 33 33 33 33 33 33 34 33 33 33 33 33 33 33 32 32 32 32 32 31 29 30 29 29 29 29 29 29 28 29 28 28 29 30 29 29 29 29 29 30
30 30 31 31 32 32 31 32 33 33 33 33 32 32 33 33 33 34 34 34 35 35 34 34 34 34 35 35 36 34 34 34 34 35 35 35 34 34 34 34 34 34 34 34 33 33 33 33 33 33 33 33 32 32 32 32 32 31 31 32 31 30 31 30 29 29 29 30 29 29 28 28 28 27 28 28 27 29 29 30 29 29 29 28 29
30 29 30 31 31 32 32 32 32 33 33 33 32 32 31 32 32 32 33 34 34 34 34 34 34 34 34 34 35 34 34 35 35 35 35 34 34 34 34 34 34 34 34 33 33 32 33 33 32 32 32 32 32 32 32 32 32 31 31 30 29 29 29 29 27 30 29 29 28 27 26 27 27 27 27 27 28 27 28 28 28 28 28 28 28
30 30 29 30 31 31 32 32 32 32 32 33 33 32 32 32 31 31 32 32 32 33 34 34 34 34 34 34 34 34 34 34 34 34 34 34 34 34 34 33 34 34 34 33 33 32 32 32 32 32 31 31 31 31 31 31 31 31 30 30 29 30 29 29 29 29 27 28 28 26 27 27 26 26 26 25 25 25 26 25 28 27 27 27 27
30 30 30 32 31 30 30 30 30 31 32 32 33 33 33 32 32 32 31 32 31 31 32 32 34 34 34 34 34 34 34 34 34 34 34 34 34 34 33 33 33 33 33 33 33 32 32 32 32 31 31 31 31 31 31 30 30 30 30 30 29 30 28 28 28 28 28 28 28 27 26 26 26 24 24 26 28 28 27 27 26 27 28 28 28
31 29 30 30 30 31 30 31 30 31 31 31 32 31 31 31 33 32 31 31 31 31 30 31 31 34 34 34 34 34 34 34 34 34 34 34 34 33 32 32 32 32 32 32 32 32 32 31 32 31 31 31 31 31 30 31 30 30 30 30 28 28 28 28 27 27 26 26 25 25 25 24 24 24 23 25 27 28 28 27 26 27 29 30 31
30 29 30 29 29 29 30 31 30 29 29 29 31 31 31 30 31 31 31 30 30 30 30 30 31 32 33 33 34 34 34 34 34 34 33 33 33 33 32 32 32 32 32 32 31 31 32 31 31 31 31 31 30 30 30 30 30 30 31 29 29 29 28 27 26 25 24 24 22 23 23 24 24 24 23 25 24 24 25 25 25 26 28 29 30
29 29 29 30 31 32 31 30 29 29 28 28 30 31 31 30 30 30 30 30 29 30 30 30 32 29 31 31 36 33 33 34 34 33 33 33 32 32 32 32 32 32 31 30 31 31 31 30 31 31 31 30 30 30 30 30 29 29 29 29 28 27 30 25 26 24 24 23 22 21 23 22 21 22 24 24 23 23 24 24 24 25 26 27 27
29 30 31 30 30 31 31 29 28 28 28 28 28 29 29 30 30 30 29 28 28 29 29 29 29 29 29 30 30 33 33 32 31 31 31 32 31 31 32 32 31 31 30 30 30 30 30 30 30 30 30 30 30 30 30 29 28 27 26 26 24 24 23 22 22 21 22 21 21 18 18 20 21 20 22 22 24 23 23 23 24 24 24 26 25
31 31 32 33 32 31 30 29 28 28 27 28 28 28 29 28 29 29 28 28 28 28 27 28 29 29 30 30 31 31 31 29 29 28 30 31 32 32 32 31 31 30 30 30 29 30 30 30 30 31 30 29 30 30 30 29 27 25 24 23 23 24 22 19 20 21 22 19 21 21 20 21 21 22 21 21 23 22 23 24 24 25 25 25 25
32 33 34 33 32 32 31 30 28 28 28 28 27 28 28 28 28 28 28 28 27 27 28 29 29 29 30 31 33 32 31 29 29 29 30 31 32 32 32 32 31 31 30 30 30 30 31 30 30 30 29 28 29 29 29 28 27 25 24 24 23 24 22 21 21 21 20 21 21 22 21 21 22 22 24 24 28 25 23 23 23 24 24 24 25
32 33 33 33 32 31 30 30 28 28 28 27 27 28 28 27 28 28 27 27 27 27 28 29 29 30 32 33 33 33 30 29 29 29 31 32 33 33 33 33 32 31 29 29 29 30 30 30 29 28 27 26 26 26 26 25 25 24 24 24 23 23 23 23 22 22 22 22 22 22 21 22 24 25 25 30 24 25 26 25 25 26 26 26 26
32 33 34 33 33 32 30 29 28 28 27 27 27 28 28 28 28 26 27 26 27 28 28 28 30 31 31 32 31 31 29 29 30 29 30 29 29 29 30 29 30 30 29 29 28 29 29 31 30 27 26 26 26 25 25 24 24 23 23 23 23 24 23 23 22 22 21 21 21 23 21 22 23 23 25 25 24 26 27 26 27 28 29 28 28
31 32 32 33 33 32 31 29 28 28 27 28 28 28 28 27 27 27 27 27 26 27 28 29 31 32 32 31 29 29 28 29 29 29 29 28 27 27 27 28 27 28 28 28 27 27 28 28 26 24 24 25 27 27 24 22 22 23 23 23 23 23 21 22 22 23 23 22 23 23 22 22 24 25 27 27 25 27 28 27 27 28 28 28 28
31 31 31 31 31 31 31 30 29 28 27 28 28 27 27 27 27 27 27 26 27 28 27 30 31 32 31 30 29 30 31 30 29 28 28 27 27 27 27 27 26 26 26 27 25 26 25 23 22 23 23 23 25 24 24 23 23 19 19 22 24 22 21 21 22 21 20 22 24 24 24 24 23 23 24 24 25 24 26 26 28 28 26 26 26
32 32 31 32 32 31 31 31 29 27 27 27 28 27 27 28 28 28 28 27 28 27 29 30 31 32 31 31 31 32 32 32 31 29 28 27 26 25 24 24 24 25 23 22 22 23 21 20 21 22 22 22 22 24 24 25 25 25 25 23 21 20 21 20 19 19 20 22 24 22 23 23 23 25 26 23 23 22 21 23 25 25 23 24 26
32 31 32 32 32 32 32 30 28 27 28 28 28 27 27 28 29 28 28 28 28 28 28 30 32 32 32 32 32 32 32 30 30 29 28 28 26 25 23 24 25 24 23 23 21 20 21 21 20 21 22 20 21 24 24 23 23 24 24 23 23 23 21 19 20 20 20 21 22 20 20 21 22 22 23 22 21 21 21 21 23 23 22 23 25
31 30 31 32 33 33 31 30 29 30 30 30 30 28 28 29 29 28 27 27 28 28 28 30 31 32 32 33 32 32 32 32 31 31 30 28 25 23 24 25 24 24 23 22 21 20 20 20 21 23 22 22 22 22 23 24 24 24 23 22 23 23 22 22 22 21 22 22 21 20 20 20 20 20 21 20 19 20 20 21 24 26 25 24 24
30 30 31 31 31 31 30 30 30 30 31 31 30 29 28 28 28 27 27 27 28 28 28 31 32 32 33 32 32 32 32 31 31 31 30 28 26 23 24 25 25 23 22 20 19 20 20 21 22 21 21 20 20 21 21 22 23 23 23 21 21 20 20 20 20 20 23 20 20 20 19 18 19 20 21 20 21 20 20 21 23 26 26 25 23
29 29 28 28 28 29 30 30 30 31 31 31 30 29 28 27 27 27 26 27 27 28 28 30 32 32 32 32 32 32 32 31 30 31 29 28 25 23 23 23 22 21 21 19 18 19 21 21 21 21 20 18 19 19 20 20 21 20 19 19 19 19 19 19 19 19 19 19 19 18 19 18 17 18 18 18 18 18 17 19 21 24 24 24 24
27 26 26 26 27 28 29 28 29 30 30 29 29 30 30 30 29 28 27 27 27 28 28 31 32 32 32 32 32 32 32 30 30 29 28 25 25 23 22 21 22 21 19 19 19 19 21 21 21 21 21 21 19 19 18 18 16 17 18 18 18 18 18 18 18 19 20 21 19 18 19 18 16 16 17 17 16 16 20 19 19 19 20 22 24